Previsão horária em Plotnikov

Hoje, 3 Março, Quarta-feira

Tempo Temperatura Precipitação Vento Pressão Humidade
00:00 -3°C° 0 mm 9 m/s 755 mmHg 83%
01:00 -3°C° 0.5 mm 9 m/s 755 mmHg 87%
02:00 -3°C° 0.5 mm 9 m/s 754 mmHg 90%
03:00 -3°C° 0.5 mm 10 m/s 754 mmHg 94%
04:00 -3°C° 0.4 mm 9 m/s 753 mmHg 95%
05:00 -3°C° 0.4 mm 9 m/s 753 mmHg 95%
06:00 -3°C° 0.4 mm 9 m/s 752 mmHg 96%
07:00 -2°C° 0.3 mm 8 m/s 752 mmHg 96%
08:00 -2°C° 0.3 mm 8 m/s 753 mmHg 96%
09:00 -2°C° 0.3 mm 7 m/s 753 mmHg 96%
10:00 -2°C° 0.2 mm 7 m/s 753 mmHg 96%
11:00 -2°C° 0.2 mm 7 m/s 754 mmHg 96%
12:00 -2°C° 0.2 mm 7 m/s 754 mmHg 96%
13:00 -1°C° 0.1 mm 7 m/s 755 mmHg 88%
14:00 -1°C° 0.1 mm 7 m/s 755 mmHg 80%
15:00 0°C° 0.1 mm 7 m/s 756 mmHg 73%
16:00 -1°C° 0.1 mm 6 m/s 756 mmHg 75%
17:00 0°C° 0.1 mm 5 m/s 757 mmHg 78%
18:00 -1°C° 0.1 mm 4 m/s 757 mmHg 80%
19:00 -1°C° 0 mm 4 m/s 758 mmHg 81%
20:00 -2°C° 0 mm 4 m/s 759 mmHg 82%
21:00 -2°C° 0 mm 4 m/s 759 mmHg 83%
22:00 -3°C° 0 mm 4 m/s 760 mmHg 84%
23:00 -3°C° 0 mm 4 m/s 760 mmHg 84%

Amanhã, 4 Março, Quinta-feira

Tempo Temperatura Precipitação Vento Pressão Humidade
00:00 -4°C° 0 mm 4 m/s 760 mmHg 85%
01:00 -4°C° 0 mm 4 m/s 760 mmHg 85%
02:00 -4°C° 0 mm 4 m/s 761 mmHg 85%
03:00 -4°C° 0 mm 4 m/s 761 mmHg 85%
04:00 -4°C° 0 mm 4 m/s 761 mmHg 83%
05:00 -4°C° 0 mm 4 m/s 761 mmHg 82%
06:00 -4°C° 0 mm 4 m/s 761 mmHg 81%
07:00 -4°C° 0 mm 5 m/s 761 mmHg 75%
08:00 -3°C° 0 mm 6 m/s 761 mmHg 70%
09:00 -2°C° 0 mm 6 m/s 761 mmHg 65%
10:00 -1°C° 0 mm 7 m/s 761 mmHg 61%
11:00 0°C° 0 mm 7 m/s 760 mmHg 57%
12:00 +3°C° 0 mm 7 m/s 760 mmHg 52%
13:00 +3°C° 0 mm 7 m/s 759 mmHg 52%
14:00 +3°C° 0 mm 7 m/s 759 mmHg 52%
15:00 +4°C° 0 mm 7 m/s 759 mmHg 52%
16:00 +3°C° 0 mm 6 m/s 758 mmHg 58%
17:00 +2°C° 0 mm 5 m/s 758 mmHg 64%
18:00 0°C° 0 mm 5 m/s 757 mmHg 70%
19:00 0°C° 0 mm 5 m/s 757 mmHg 73%
20:00 0°C° 0 mm 5 m/s 757 mmHg 75%
21:00 -1°C° 0 mm 5 m/s 757 mmHg 78%
22:00 -1°C° 0 mm 5 m/s 757 mmHg 80%
23:00 -2°C° 0 mm 6 m/s 757 mmHg 82%

Depois de amanhã, 5 Março, Sexta-feira

Tempo Temperatura Precipitação Vento Pressão Humidade
00:00 -2°C° 0 mm 6 m/s 757 mmHg 84%
01:00 -2°C° 0 mm 6 m/s 757 mmHg 84%
02:00 -2°C° 0 mm 6 m/s 756 mmHg 83%
03:00 -2°C° 0 mm 7 m/s 756 mmHg 82%
04:00 -2°C° 0 mm 7 m/s 756 mmHg 83%
05:00 -2°C° 0 mm 7 m/s 756 mmHg 83%
06:00 -2°C° 0 mm 7 m/s 756 mmHg 83%
07:00 -1°C° 0 mm 7 m/s 756 mmHg 79%
08:00 0°C° 0 mm 8 m/s 756 mmHg 75%
09:00 +1°C° 0 mm 9 m/s 756 mmHg 70%
10:00 +2°C° 0 mm 9 m/s 756 mmHg 67%
11:00 +4°C° 0 mm 8 m/s 756 mmHg 64%
12:00 +5°C° 0 mm 8 m/s 755 mmHg 61%
13:00 +6°C° 0 mm 8 m/s 755 mmHg 58%
14:00 +6°C° 0 mm 7 m/s 755 mmHg 56%
15:00 +8°C° 0 mm 7 m/s 755 mmHg 54%
16:00 +7°C° 0 mm 6 m/s 755 mmHg 58%
17:00 +6°C° 0 mm 5 m/s 754 mmHg 62%
18:00 +5°C° 0 mm 4 m/s 754 mmHg 66%
19:00 +5°C° 0 mm 4 m/s 754 mmHg 68%
20:00 +3°C° 0 mm 5 m/s 754 mmHg 71%
21:00 +3°C° 0 mm 5 m/s 755 mmHg 73%
22:00 +2°C° 0 mm 5 m/s 754 mmHg 73%
23:00 +2°C° 0 mm 5 m/s 754 mmHg 72%

6 Março, Sábado

Tempo Temperatura Precipitação Vento Pressão Humidade
00:00 +2°C° 0 mm 5 m/s 754 mmHg 72%
01:00 +1°C° 0 mm 5 m/s 754 mmHg 71%
02:00 +1°C° 0 mm 5 m/s 754 mmHg 71%
03:00 +1°C° 0 mm 5 m/s 753 mmHg 70%
04:00 +1°C° 0 mm 5 m/s 753 mmHg 70%
05:00 +1°C° 0 mm 5 m/s 753 mmHg 70%
06:00 +1°C° 0 mm 6 m/s 753 mmHg 70%
07:00 +2°C° 0 mm 6 m/s 753 mmHg 70%
08:00 +3°C° 0 mm 7 m/s 753 mmHg 70%
09:00 +4°C° 0 mm 8 m/s 753 mmHg 70%
10:00 +5°C° 0 mm 8 m/s 753 mmHg 71%
11:00 +5°C° 0 mm 8 m/s 753 mmHg 71%
12:00 +6°C° 0 mm 8 m/s 753 mmHg 72%
13:00 +5°C° 0 mm 7 m/s 753 mmHg 77%
14:00 +4°C° 0 mm 6 m/s 753 mmHg 83%
15:00 +3°C° 0 mm 5 m/s 753 mmHg 88%
16:00 +2°C° 0.5 mm 5 m/s 753 mmHg 91%
17:00 +1°C° 0.5 mm 5 m/s 753 mmHg 93%
18:00 0°C° 0.5 mm 5 m/s 753 mmHg 96%
19:00 -1°C° 0.4 mm 5 m/s 754 mmHg 95%
20:00 -1°C° 0.4 mm 4 m/s 754 mmHg 95%
21:00 -1°C° 0.4 mm 4 m/s 755 mmHg 95%
22:00 -2°C° 0.2 mm 4 m/s 755 mmHg 89%
23:00 -2°C° 0.2 mm 4 m/s 756 mmHg 84%

7 Março, Domingo

Tempo Temperatura Precipitação Vento Pressão Humidade
00:00 -2°C° 0.2 mm 4 m/s 756 mmHg 78%
01:00 -2°C° 0 mm 4 m/s 757 mmHg 77%
02:00 -2°C° 0 mm 3 m/s 757 mmHg 76%
03:00 -2°C° 0 mm 3 m/s 758 mmHg 75%
04:00 -2°C° 0 mm 3 m/s 758 mmHg 77%
05:00 -4°C° 0 mm 3 m/s 758 mmHg 80%
06:00 -3°C° 0 mm 2 m/s 759 mmHg 82%
07:00 -4°C° 0 mm 3 m/s 759 mmHg 75%
08:00 -3°C° 0 mm 4 m/s 760 mmHg 67%
09:00 -2°C° 0 mm 4 m/s 760 mmHg 60%
10:00 -2°C° 0 mm 5 m/s 760 mmHg 54%
11:00 -1°C° 0 mm 5 m/s 760 mmHg 47%
12:00 -2°C° 0 mm 6 m/s 760 mmHg 41%
13:00 -1°C° 0 mm 6 m/s 760 mmHg 41%
14:00 -1°C° 0 mm 6 m/s 759 mmHg 41%
15:00 -1°C° 0 mm 6 m/s 759 mmHg 40%
16:00 -1°C° 0 mm 5 m/s 759 mmHg 47%
17:00 -2°C° 0 mm 4 m/s 759 mmHg 53%
18:00 -2°C° 0 mm 4 m/s 758 mmHg 59%
19:00 -3°C° 0 mm 4 m/s 758 mmHg 61%
20:00 -3°C° 0 mm 4 m/s 758 mmHg 63%
21:00 -3°C° 0 mm 4 m/s 758 mmHg 65%
22:00 -4°C° 0 mm 5 m/s 758 mmHg 65%
23:00 -4°C° 0 mm 5 m/s 758 mmHg 66%

8 Março, Segunda-feira

Tempo Temperatura Precipitação Vento Pressão Humidade
00:00 -4°C° 0 mm 5 m/s 758 mmHg 66%
01:00 -4°C° 0 mm 6 m/s 757 mmHg 65%
02:00 -4°C° 0 mm 6 m/s 757 mmHg 65%
03:00 -4°C° 0 mm 6 m/s 756 mmHg 64%
04:00 -4°C° 0 mm 6 m/s 756 mmHg 64%
05:00 -4°C° 0 mm 7 m/s 756 mmHg 64%
06:00 -4°C° 0 mm 7 m/s 755 mmHg 64%
07:00 -3°C° 0 mm 7 m/s 755 mmHg 63%
08:00 -2°C° 0 mm 8 m/s 755 mmHg 61%
09:00 -1°C° 0 mm 9 m/s 755 mmHg 60%
10:00 0°C° 0 mm 9 m/s 755 mmHg 58%
11:00 +1°C° 0 mm 9 m/s 755 mmHg 55%
12:00 +2°C° 0 mm 9 m/s 754 mmHg 53%
13:00 +2°C° 0 mm 9 m/s 754 mmHg 54%
14:00 +2°C° 0 mm 9 m/s 754 mmHg 55%
15:00 +2°C° 0 mm 9 m/s 753 mmHg 56%
16:00 +2°C° 0 mm 7 m/s 753 mmHg 61%
17:00 +1°C° 0 mm 6 m/s 753 mmHg 65%
18:00 0°C° 0 mm 5 m/s 753 mmHg 70%
19:00 0°C° 0 mm 5 m/s 753 mmHg 72%
20:00 -1°C° 0 mm 5 m/s 753 mmHg 74%
21:00 -1°C° 0 mm 5 m/s 754 mmHg 76%
22:00 -1°C° 0 mm 5 m/s 754 mmHg 79%
23:00 -1°C° 0 mm 5 m/s 753 mmHg 82%
Mostrar mais

Necessitamos do seu Consentimento

A Meteoprog e os seus Fornecedores de Serviços podem armazenar e aceder a dados pessoais como cookies, identificadores do dispositivo ou outras tecnologias semelhantes existentes no seu dispositivo e processar estes dados para personalizar conteúdos e anúncios, assim como funcionalidades nas redes sociais e análise de tráfego.

  • Armazenar e/ou aceder a informações no seu dispositivo

    Os cookies, identificadores do dispositivo ou outras informações podem ser armazenados ou acedidos no seu dispositivo, para os fins acima indicados.

  • Anúncios e conteúdos personalizados, medição de anúncios e conteúdos, dados sobre o público-alvo e desenvolvimento de produtos

    Os anúncios e os conteúdos podem ser personalizados com base num perfil. Podem ser adicionados dados adicionais para uma maior personalização dos anúncios e dos conteúdos. A eficácia dos anúncios e dos conteúdos pode ser medida. Podem ser obtidas informações sobre o público que visualizou os anúncios e os conteúdos. Estes dados podem ser usados para desenvolver ou melhorar sistemas, softwares ou a experiência do utilizador.

Ao clicar em "Eu concordo”, permitirá o uso de cookies, identificadores do dispositivo e web beacons mencionados ou outras tecnologias semelhantes. As configurações do navegador do seu dispositivo podem ser alteradas.

Para certos fins, podem ser invocados interesses legítimos ao invés de consentimento. Pode ler mais informação sobre este assunto na nossa Política de Privacidade e Cookies.